| time (UTC) | temp F | wind direction | speed MPH | gust MPH | rain 1hr in | rain 24hr in | rain mn in | humidity % | barometer mb |
| 20260506084523 | 54 | 260 | 7.0 | 15.0 | 0.00 | 0.00 | 0.00 | 92 | 1013.2 |
| 20260506083041 | 54 | 260 | 8.0 | 15.0 | 0.00 | 0.00 | 0.00 | 92 | 1013.3 |
| 20260506081536 | 54 | 258 | 8.0 | 19.0 | 0.00 | 0.00 | 0.00 | 92 | 1013.2 |
| 20260506073104 | 54 | 275 | 10.0 | 17.0 | 0.00 | 0.00 | 0.00 | 92 | 1013.2 |
| 20260506071548 | 54 | 256 | 10.0 | 17.0 | 0.00 | 0.00 | 0.00 | 92 | 1013.4 |
| 20260506070108 | 54 | 264 | 10.0 | 17.0 | 0.00 | 0.00 | 0.00 | 92 | 1013.2 |
| 20260506061526 | 54 | 124 | 12.0 | 20.0 | 0.00 | 0.00 | 0.00 | 91 | 1013.0 |
| 20260506060108 | 54 | 124 | 11.0 | 23.0 | 0.00 | 0.00 | 0.00 | 91 | 1013.2 |
| 20260506044512 | 54 | 235 | 13.0 | 23.0 | 0.00 | 0.00 | 0.00 | 90 | 1013.5 |
| 20260506043015 | 54 | 124 | 11.0 | 19.0 | 0.00 | 0.00 | 0.00 | 90 | 1013.5 |
| 20260506041512 | 54 | 124 | 10.0 | 17.0 | 0.00 | 0.00 | 0.00 | 90 | 1013.4 |
| 20260506040011 | 54 | 263 | 10.0 | 19.0 | 0.00 | 0.00 | 0.00 | 90 | 1013.5 |
| 20260506034605 | 54 | 261 | 9.0 | 16.0 | 0.00 | 0.00 | 0.00 | 90 | 1013.6 |
| 20260506033115 | 54 | 280 | 12.0 | 20.0 | 0.00 | 0.00 | 0.00 | 89 | 1013.5 |
| 20260506031515 | 54 | 262 | 10.0 | 23.0 | 0.00 | 0.00 | 0.00 | 89 | 1013.4 |
| 20260506030021 | 54 | 260 | 14.0 | 19.0 | 0.00 | 0.00 | 0.00 | 89 | 1013.2 |
| 20260506024611 | 54 | 124 | 13.0 | 20.0 | 0.00 | 0.00 | 0.00 | 88 | 1013.2 |
| 20260506023100 | 54 | 258 | 10.0 | 18.0 | 0.00 | 0.00 | 0.00 | 87 | 1013.1 |
| 20260506021616 | 54 | 124 | 10.0 | 19.0 | 0.00 | 0.00 | 0.00 | 86 | 1013.2 |
| 20260506020009 | 54 | 221 | 11.0 | 18.0 | 0.00 | 0.00 | 0.00 | 85 | 1013.3 |
| 20260506014511 | 54 | 253 | 11.0 | 18.0 | 0.00 | 0.00 | 0.00 | 85 | 1013.3 |
| 20260506013101 | 54 | 265 | 10.0 | 16.0 | 0.00 | 0.00 | 0.00 | 85 | 1013.3 |
| 20260506011529 | 55 | 262 | 7.0 | 15.0 | 0.00 | 0.00 | 0.00 | 85 | 1013.3 |
| 20260506010035 | 54 | 265 | 6.0 | 15.0 | 0.00 | 0.00 | 0.00 | 85 | 1013.3 |
| 20260506004555 | 54 | 267 | 5.0 | 14.0 | 0.00 | 0.00 | 0.00 | 86 | 1013.0 |
| 20260506003018 | 54 | 124 | 8.0 | 16.0 | 0.00 | 0.00 | 0.00 | 87 | 1012.3 |
| 20260506001509 | 54 | 124 | 7.0 | 15.0 | 0.00 | 0.00 | 0.00 | 87 | 1011.8 |
| 20260506000022 | 54 | 258 | 11.0 | 18.0 | 0.00 | 0.00 | 0.00 | 87 | 1011.8 |
| 20260505234531 | 54 | 281 | 12.0 | 18.0 | 0.00 | 0.00 | 0.00 | 86 | 1011.8 |
| 20260505233015 | 55 | 263 | 7.0 | 16.0 | 0.00 | 0.00 | 0.00 | 86 | 1011.9 |
| 20260505231614 | 55 | 269 | 10.0 | 17.0 | 0.00 | 0.00 | 0.00 | 87 | 1011.5 |
| 20260505230056 | 54 | 124 | 9.0 | 20.0 | 0.00 | 0.00 | 0.00 | 87 | 1011.4 |
| 20260505224604 | 54 | 124 | 12.0 | 18.0 | 0.00 | 0.00 | 0.00 | 87 | 1011.3 |
| 20260505223051 | 55 | 268 | 11.0 | 17.0 | 0.00 | 0.00 | 0.00 | 86 | 1011.4 |
| 20260505221551 | 55 | 258 | 10.0 | 18.0 | 0.00 | 0.00 | 0.00 | 85 | 1011.2 |
| 20260505220027 | 56 | 260 | 13.0 | 21.0 | 0.00 | 0.00 | 0.00 | 84 | 1011.3 |
| 20260505214519 | 56 | 220 | 10.0 | 20.0 | 0.00 | 0.00 | 0.00 | 84 | 1011.2 |
| 20260505213003 | 56 | 246 | 10.0 | 24.0 | 0.00 | 0.00 | 0.00 | 84 | 1011.3 |
| 20260505211505 | 56 | 217 | 14.0 | 24.0 | 0.00 | 0.00 | 0.00 | 84 | 1010.9 |
| 20260505210022 | 56 | 124 | 15.0 | 24.0 | 0.00 | 0.00 | 0.00 | 84 | 1011.1 |
| 20260505204555 | 56 | 258 | 10.0 | 23.0 | 0.00 | 0.00 | 0.00 | 84 | 1011.0 |
| 20260505203054 | 57 | 221 | 12.0 | 23.0 | 0.00 | 0.00 | 0.00 | 83 | 1011.1 |
| 20260505201603 | 57 | 271 | 11.0 | 20.0 | 0.00 | 0.00 | 0.00 | 83 | 1011.0 |
| 20260505200025 | 57 | 265 | 9.0 | 25.0 | 0.00 | 0.00 | 0.00 | 83 | 1011.1 |
| 20260505194524 | 57 | 248 | 10.0 | 22.0 | 0.00 | 0.00 | 0.00 | 83 | 1011.3 |
| 20260505193034 | 57 | 266 | 10.0 | 19.0 | 0.00 | 0.00 | 0.00 | 84 | 1011.3 |
| 20260505191608 | 57 | 124 | 11.0 | 21.0 | 0.00 | 0.00 | 0.00 | 84 | 1011.4 |
| 20260505190111 | 57 | 231 | 13.0 | 23.0 | 0.00 | 0.00 | 0.00 | 83 | 1011.5 |
| 20260505184611 | 57 | 124 | 14.0 | 25.0 | 0.00 | 0.00 | 0.00 | 83 | 1011.7 |
| 20260505183104 | 57 | 258 | 13.0 | 21.0 | 0.00 | 0.00 | 0.00 | 83 | 1011.7 |
| 20260505181555 | 57 | 124 | 12.0 | 18.0 | 0.00 | 0.00 | 0.00 | 84 | 1011.8 |
| 20260505180039 | 57 | 124 | 8.0 | 20.0 | 0.00 | 0.00 | 0.00 | 84 | 1011.9 |
| 20260505174527 | 56 | 124 | 11.0 | 21.0 | 0.00 | 0.00 | 0.00 | 84 | 1011.9 |
| 20260505173044 | 57 | 250 | 7.0 | 23.0 | 0.00 | 0.00 | 0.00 | 84 | 1011.9 |
| 20260505171552 | 56 | 124 | 11.0 | 19.0 | 0.00 | 0.00 | 0.00 | 84 | 1011.9 |
| 20260505170045 | 57 | 274 | 8.0 | 23.0 | 0.00 | 0.00 | 0.00 | 84 | 1011.9 |
| 20260505164535 | 57 | 124 | 10.0 | 23.0 | 0.00 | 0.00 | 0.00 | 84 | 1012.2 |
| 20260505163128 | 56 | 124 | 11.0 | 20.0 | 0.00 | 0.00 | 0.00 | 84 | 1012.5 |
| 20260505161559 | 56 | 204 | 9.0 | 17.0 | 0.00 | 0.00 | 0.00 | 84 | 1012.6 |
| 20260505160110 | 56 | 124 | 11.0 | 18.0 | 0.00 | 0.00 | 0.00 | 84 | 1012.8 |
| 20260505153046 | 56 | 214 | 11.0 | 18.0 | 0.00 | 0.00 | 0.00 | 84 | 1012.7 |
| 20260505151552 | 56 | 263 | 10.0 | 19.0 | 0.00 | 0.00 | 0.00 | 84 | 1012.7 |
| 20260505140129 | 55 | 223 | 9.0 | 20.0 | 0.00 | 0.00 | 0.00 | 86 | 1012.4 |
| 20260505130106 | 54 | 256 | 9.0 | 18.0 | 0.00 | 0.00 | 0.00 | 87 | 1012.6 |
| 20260505124605 | 54 | 260 | 9.0 | 19.0 | 0.00 | 0.00 | 0.00 | 86 | 1012.6 |
| 20260505123011 | 55 | 124 | 6.0 | 13.0 | 0.00 | 0.00 | 0.00 | 86 | 1012.5 |
| 20260505121600 | 54 | 268 | 7.0 | 16.0 | 0.00 | 0.00 | 0.00 | 86 | 1012.3 |
| 20260505120006 | 54 | 124 | 6.0 | 16.0 | 0.00 | 0.00 | 0.00 | 87 | 1012.3 |
| 20260505114557 | 54 | 124 | 8.0 | 16.0 | 0.00 | 0.00 | 0.00 | 86 | 1012.4 |
| 20260505113058 | 54 | 124 | 8.0 | 16.0 | 0.00 | 0.00 | 0.00 | 87 | 1012.3 |
| 20260505111548 | 54 | 124 | 11.0 | 17.0 | 0.00 | 0.00 | 0.00 | 87 | 1012.3 |
| 20260505101554 | 52 | 124 | 7.0 | 13.0 | 0.00 | 0.00 | 0.00 | 89 | 1012.0 |
| 20260505100050 | 52 | 124 | 6.0 | 12.0 | 0.00 | 0.00 | 0.00 | 89 | 1011.8 |
| 20260505094554 | 51 | 124 | 7.0 | 12.0 | 0.00 | 0.00 | 0.00 | 89 | 1011.9 |
| 20260505093033 | 51 | 124 | 7.0 | 14.0 | 0.00 | 0.00 | 0.00 | 89 | 1012.0 |
| 20260505091555 | 51 | 124 | 6.0 | 10.0 | 0.00 | 0.00 | 0.00 | 89 | 1011.9 |
| 20260505090048 | 51 | 124 | 5.0 | 11.0 | 0.00 | 0.00 | 0.00 | 90 | 1011.9 |